Weather History for KEKN - April, 2012

Change the Weather History Date:

Thursday, April 12, 2012

  Actual Average Record
Temperature  
Mean Temperature 43 °F 49 °F  
Max Temperature 53 °F 62 °F 82 °F (1930)
Min Temperature 33 °F 36 °F 15 °F (1989)
Degree Days  
Heating Degree Days 22 16  
Month to date heating degree days 211 218  
Since 1 July heating degree days 4399 5319  
Cooling Degree Days 0 0  
Month to date cooling degree days 0 0  
Year to date cooling degree days 0 0  
Moisture  
Dew Point 28 °F    
Average Humidity 59    
Maximum Humidity 82    
Minimum Humidity 35    
Precipitation  
Precipitation 0.00 in 0.13 in 1.56 in (2011)
Month to date precipitation 0.14 1.51  
Year to date precipitation 9.63 11.80  
Snow  
Snow 0.00 in - - ()
Month to date snowfall T  
Since 1 September snowfall 30.4  
Snow Depth 0.00 in    
Sea Level Pressure  
Sea Level Pressure 30.22 in    
Wind  
Wind Speed 5 mph (NW)    
Max Wind Speed 15 mph    
Max Gust Speed 21 mph    
Visibility 10 miles    
Events      
T = Trace of Precipitation, MM = Missing Value Source: NWS Daily Summary

Daily Weather History Graph

Daily Weather History Graph

Search for Another Location

Airport or City:

Trip Planner

Search our weather history database for the weather conditions in past years. The results will help you decide how hot, cold, wet, or windy it might be!

Date:

Astronomy

Apr. 12, 2012 Rise Set
Actual Time 6:46 AM EDT 7:54 PM EDT
Civil Twilight 6:19 AM EDT 8:21 PM EDT
Nautical Twilight 5:46 AM EDT 8:54 PM EDT
Astronomical Twilight 5:12 AM EDT 9:28 PM EDT
Moon 1:38 AM EDT (4/12) 11:41 AM EDT (4/12)
Length of Visible Light 14h 02m
Length of Day
13h 07m
Waning Gibbous, 59% of the Moon is Illuminated
Apr 12
Waning Gibbous
Apr 13
Last Quarter
Apr 21
New
Apr 29
First Quarter
May 5
Full

Hourly Weather History & Observations

Time (EDT) Temp. Windchill Dew Point Humidity Pressure Visibility Wind Dir Wind Speed Gust Speed Precip Events Conditions
12:51 AM 36.0 °F 31.1 °F 30.0 °F 79% 30.21 in 10.0 mi NW 5.8 mph - N/A   Overcast
1:25 AM 35.6 °F - 30.2 °F 81% 30.14 in 10.0 mi Calm Calm - N/A   Overcast
1:51 AM 36.0 °F 32.1 °F 30.0 °F 79% 30.20 in 10.0 mi Variable 4.6 mph - N/A   Overcast
2:51 AM 36.0 °F 31.1 °F 28.9 °F 76% 30.19 in 10.0 mi NNW 5.8 mph - N/A   Overcast
3:51 AM 35.1 °F 30.1 °F 28.9 °F 78% 30.19 in 10.0 mi WNW 5.8 mph - N/A   Overcast
4:51 AM 35.1 °F 30.1 °F 28.9 °F 78% 30.19 in 10.0 mi WNW 5.8 mph - N/A   Overcast
5:51 AM 34.0 °F 29.8 °F 28.9 °F 82% 30.21 in 10.0 mi NW 4.6 mph - N/A   Overcast
6:51 AM 34.0 °F 31.0 °F 28.0 °F 79% 30.24 in 10.0 mi NW 3.5 mph - N/A   Overcast
7:51 AM 34.0 °F - 28.0 °F 79% 30.27 in 10.0 mi Calm Calm - N/A   Mostly Cloudy
8:05 AM 33.8 °F - 28.4 °F 81% 30.21 in 10.0 mi Calm Calm - N/A   Scattered Clouds
8:51 AM 35.1 °F - 28.9 °F 78% 30.29 in 10.0 mi Calm Calm - N/A   Partly Cloudy
9:51 AM 39.0 °F 36.8 °F 30.0 °F 70% 30.30 in 10.0 mi WNW 3.5 mph - N/A   Partly Cloudy
10:51 AM 42.1 °F 36.1 °F 28.9 °F 60% 30.30 in 10.0 mi West 10.4 mph 16.1 mph N/A   Mostly Cloudy
11:51 AM 45.0 °F 39.3 °F 27.0 °F 49% 30.29 in 10.0 mi NW 11.5 mph - N/A   Mostly Cloudy
12:51 PM 46.9 °F - 25.0 °F 42% 30.26 in 10.0 mi NW 8.1 mph 17.3 mph N/A   Mostly Cloudy
1:51 PM 48.0 °F - 27.0 °F 44% 30.25 in 10.0 mi NNW 6.9 mph 19.6 mph N/A   Overcast
2:51 PM 48.2 °F - 26.6 °F 43% 30.18 in 10.0 mi NNW 9.2 mph - N/A   Scattered Clouds
3:51 PM 50.0 °F - 25.0 °F 38% 30.20 in 10.0 mi North 9.2 mph 19.6 mph N/A   Scattered Clouds
4:51 PM 52.0 °F - 25.0 °F 35% 30.19 in 10.0 mi Variable 4.6 mph - N/A   Partly Cloudy
5:51 PM 52.0 °F - 25.0 °F 35% 30.19 in 10.0 mi WNW 8.1 mph - N/A   Mostly Cloudy
6:51 PM 50.0 °F - 25.0 °F 38% 30.19 in 10.0 mi WNW 5.8 mph - N/A   Mostly Cloudy
7:51 PM 46.9 °F - 25.0 °F 42% 30.19 in 10.0 mi NW 4.6 mph - N/A   Mostly Cloudy
8:51 PM 43.0 °F - 30.0 °F 60% 30.21 in 10.0 mi Calm Calm - N/A   Overcast
9:51 PM 42.1 °F - 32.0 °F 67% 30.23 in 10.0 mi Calm Calm - N/A   Overcast
10:51 PM 39.9 °F - 30.0 °F 68% 30.24 in 10.0 mi Calm Calm - N/A   Mostly Cloudy
11:51 PM 39.9 °F - 30.9 °F 70% 30.23 in 10.0 mi Calm Calm - N/A   Overcast